User: anonymous   Login
Location: Silverdale
(47.6506°N, 122.6941°W)
Time: 15:16:16
(UTC+00:00)
Language:

deb Explorer IX - Orbit

View from above orbital plane
View from above orbital plane
View from above satellite
View from above satellite

Ground track
Ground track

The orbit data is extracted from the following two-line orbital elements,

1 00085U 61004C   22268.79488032  .00005132  00000-0  97921-3 0  9997
2 00085  38.7689  88.9405 0372763 294.3300  61.8958 14.28031300 49427
Epoch (UTC): 25 September 2022 19:04:37
Eccentricity: 0.0372763
inclination: 38.7689°
perigee height: 531 km
apogee height: 1066 km
right ascension of ascending node: 88.9405°
argument of perigee: 294.3300°
revolutions per day: 14.28031300
mean anomaly at epoch: 61.8958°
orbit number at epoch: 4942

The dashed part of the orbit path shows where the satellite is in the earth's shadow,  

DLR